This is the latest recevied weather packets stored in our database for station/object K3MV-13. If no packets are shown the sender has not sent any weather packets the latest 10 day(s).
| Time | Temp. | Humidity | Pressure | Rain* | Wind** | Luminosity | Snow |
|---|---|---|---|---|---|---|---|
| 1777568201 | 7.78° C | 91% | 1011.4 hPa | 0 mm | - | 122 W/m² | - |
| 1777567898 | 7.78° C | 92% | 1011.7 hPa | 0 mm | - | 178 W/m² | - |
| 1777567594 | 7.22° C | 91% | 1011.5 hPa | 0 mm | - | 255 W/m² | - |
| 1777567292 | 7.22° C | 91% | 1011.6 hPa | 1.78 mm | - | 289 W/m² | - |
| 1777566990 | 7.22° C | 90% | 1011.6 hPa | 1.78 mm | - | 90 W/m² | - |
| 1777566688 | 7.22° C | 91% | 1011.6 hPa | 0 mm | - | 180 W/m² | - |
| 1777566385 | 6.67° C | 89% | 1011.7 hPa | 0 mm | - | 270 W/m² | - |
| 1777566082 | 6.67° C | 90% | 1011.8 hPa | 0 mm | - | 200 W/m² | - |
| 1777565777 | 6.67° C | 90% | 1011.9 hPa | 0 mm | - | 196 W/m² | - |
| 1777565474 | 6.67° C | 89% | 1011.8 hPa | 1.27 mm | - | 259 W/m² | - |
| 1777565171 | 6.67° C | 89% | 1011.9 hPa | 3.05 mm | - | 203 W/m² | - |
| 1777564867 | 7.22° C | 89% | 1011.8 hPa | 3.05 mm | - | 121 W/m² | - |
| 1777564567 | 7.78° C | 90% | 1011.6 hPa | 1.27 mm | - | 87 W/m² | - |
| 1777564263 | 7.22° C | 89% | 1011.6 hPa | 0 mm | - | 240 W/m² | - |
| 1777563960 | 7.22° C | 90% | 1011.5 hPa | 1.78 mm | - | 260 W/m² | - |
| 1777563656 | 7.22° C | 89% | 1011.6 hPa | 1.78 mm | - | 142 W/m² | - |
| 1777563355 | 7.22° C | 88% | 1011.5 hPa | 3.05 mm | - | 94 W/m² | - |
| 1777563052 | 7.78° C | 86% | 1011.5 hPa | 3.05 mm | - | 114 W/m² | - |
| 1777562748 | 8.33° C | 84% | 1011.4 hPa | 0 mm | - | 88 W/m² | - |
| 1777562447 | 8.33° C | 83% | 1011 hPa | 0 mm | - | 181 W/m² | - |
| 1777562143 | 8.33° C | 80% | 1011.2 hPa | 0 mm | - | 214 W/m² | - |
| 1777561841 | 8.89° C | 75% | 1010.8 hPa | 0 mm | - | 130 W/m² | - |
| 1777561537 | 9.44° C | 72% | 1010.8 hPa | 0 mm | - | 145 W/m² | - |
| 1777561233 | 10° C | 72% | 1010.8 hPa | 0 mm | - | 334 W/m² | - |
| 1777560932 | 10° C | 72% | 1010.8 hPa | 0 mm | - | 330 W/m² | - |
* Rain latest hour (hover to see other rain measurements)
** Current wind speed in m/s (hover to see current wind gust speed)